Probability
0 0 0 0 0 0 0 0 0 0 0 0 0 0 0 0 0 0 0 0 0 0 0 0 0 0 0 0 0 0 0 0 0 0 0 0 0 0 0 0 0 0 0 0
0 0 0 0 0 0 0 0 0 0 0 0 0 0 0 0 0 0 0 0 0 0 0 0 0 0 0 0 0 0 0 0 0 0 0 0 0 0 0 0 0 0 0 0
0 0 0 0 0 0 0 0 0 0 0 0 0 0 0 0 0 0 0 0 0 0 0 0 0 0 0 0 0 0 0 0 0 0 0 0 0 0 0 0 0 0 0 0
0 0 0 0 0 0 0 0 0 0 0 0 0 0 0 0 0 0 0 0 0 0 0 0 0 0 0 0 0 0 0 0 0 0 0 0 0 0 0 0 0 0 0 0
0 0 0 0 0 0 0 0 0 0 0 0 0 0 0 0 0 0 0 0 0 0 0 0 0 0 0 0 0 0 0 0 0 0 0 0 0 0 0 0 0 0 0 0
0 0 0 0 0 0 0 0 0 0 0 0 0 0 0 0 0 0 0 0 0 0 0 0 0 0 0 0 0 0 0 0 0 0 0 0 0 0 0 0 0 0 0 0
0 0 0 0 0 0 0 0 0 0 0 0 0 0 0 0 0 0 0 0 0 0 0 0 0 0 0 0 0 0 0 0 0 0 0 0 0 0 0 0 0 0 0 0
0 0 0 0 0 0 0 0 0 0 0 0 0 0 0 0 0 0 0 0 0 0 0 0 0 0 0 0 0 0 0 0 0 0 0 0 0 0 0 0 0 0 0 0
0 0 0 0 0 0 0 0 0 0 0 0 0 0 0 0 0 0 0 0 0 0 0 0 0 0 0 0 0 0 0 0 0 0 0 0 0 0 0 0 0 0 0 0
0 0 0 0 0 0 0 0 0 0 0 0 0 0 0 0 0 0 0 0 0 0 0 0 0 0 0 0 0 0 0 0 0 0 0 0 0 0 0 0 0 0 0 0
0 0 0 0 0 0 0 0 0 0 0 0 0 0 0 0 0 0 0 0 0 0 0 0 0 0 0 0 0 0 0 0 0 0 0 0 0 0 0 0 0 0 0 0
0 0 0 0 0 0 0 0 0 0 0 0 0 0 0 0 0 0 0 0 0 0 0 0 0 0 0 0 0 0 0 0 0 0 0 0 0 0 0 0 0 0 0 0
0 0 0 0 0 0 0 0 0 0 0 0 0 0 0 0 0 0 0 0 0 0 0 0 0 0 0 0 0 0 0 0 0 0 0 0 0 0 0 0 0 0 0 0
0 0 0 0 0 0 0 0 0 0 0 0 0 0 0 0 0 0 0 0 0 0 0 0 0 0 0 0 0 0 0 0 0 0 0 0 0 0 0 0 0 0 0 0
0 0 0 0 0 0 0 0 0 0 0 0 0 0 0 0 0 0 0 0 0 0 0 0 0 0 0 0 0 0 0 0 0 0 0 0 0 0 0 0 0 0 0 0
0 0 0 0 0 0 0 0 0 0 0 0 0 0 0 0 0 0 0 0 0 0 0 0 0 0 0 0 0 0 0 0 0 0 0 0 0 0 0 0 0 0 0 0
0 0 0 0 0 0 0 0 0 0 0 0 0 0 0 0 0 0 0 0 0 0 0 0 0 0 0 0 0 0 0 0 0 0 0 0 0 0 0 0 0 0 0 0
0 0 0 0 0 0 0 0 0 0 0 0 0 0 0 0 0 0 0 0 0 0 0 0 0 0 0 0 0 0 0 0 0 0 0 0 0 0 0 0 0 0 0 0
0 0 0 0 0 0 0 0 0 0 0 0 0 0 0 0 0 0 0 0 0 0 0 0 0 0 0 0 0 0 0 0 0 0 0 0 0 0 0 0 0 0 0 0
0 0 0 0 0 0 0 0 0 0 0 0 0 0 0 0 0 0 0 0 0 0 0 0 0 0 0 0 0 0 0 0 0 0 0 0 0 0 0 0 0 0 0 0
0 0 0 0 0 0 0 0 0 0 0 0 0 0 0 0 0 0 0 0 0 0 0 0 0 0 0 0 0 0 0 0 0 0 0 0 0 0 0 0 0 0 0 0
0 0 0 0 0 0 0 0 0 0 0 0 0 0 0 0 0 0 0 0 0 0 0 0 0 0 0 0 0 0 0 0 0 0 0 0 0 0 0 0 0 0 0 0
0 0 0 0 0 0 0 0 0 0 0 0 0 0 0 0 0 0 0 0 0 0 0 0 0 0 0 0 0 0 0 0 0 0 0 0 0 0 0 0 0 0 0 0
0 0 0 0 0 0 0 0 0 0 0 0 0 0 0 0 0 0 0 0 0 0 0 0 0 0 0 0 0 0 0 0 0 0 0 0 0 0 0 0 0 0 0 0
0 0 0 0 0 0 0 0 0 0 0 0 0 0 0 0 0 0 0 0 0 0 0 0 0 0 0 0 0 0 0 0 0 0 0 0 0 0 0 0 0 0 0 0
0 0 0 0 0 0 0 0 0 0 0 0 0 0 0 0 0 0 0 0 0 0 0 0 0 0 0 0 0 0 0 0 0 0 0 0 0 0 0 0 0 0 0 0
0 0 0 0 0 0 0 0 0 0 0 0 0 0 0 0 0 0 0 0 0 0 0 0 0 0 0 0 0 0 0 0 0 0 0 0 0 0 0 0 0 0 0 0
Wind_Speed
2 2 2 3 4 5 7 6 7 6 7 10 6 5 4 3 3 2 3 3 3 3 2 2 2 2 2 2 1 1 1 1 2 2 2 2 2 2 2 2 2 2 2 2
1 1 2 5 7 7 7 7 8 8 11 10 7 4 5 5 4 4 4 4 4 3 3 3 2 2 2 2 1 1 1 2 2 2 2 2 2 2 2 2 2 2 2 3
1 3 3 7 8 10 7 8 8 10 9 4 3 4 4 4 5 6 6 5 4 4 4 3 3 3 3 2 1 1 2 2 2 2 2 2 2 2 2 2 2 2 2 3
0 1 5 3 1 6 7 8 11 10 8 6 5 4 4 6 7 7 6 5 4 4 3 3 2 2 2 1 1 1 2 2 2 2 2 2 2 2 2 2 2 2 2 3
2 2 8 6 4 7 7 8 10 13 12 8 3 3 6 6 7 7 5 5 4 3 3 2 2 2 1 1 1 1 2 2 2 2 2 2 2 3 2 2 2 2 2 2
3 3 7 3 4 4 3 6 6 11 10 7 5 4 3 3 3 4 4 3 3 2 2 2 2 2 2 2 2 3 3 3 2 2 2 2 3 2 2 2 2 2 2 2
5 6 10 4 6 7 5 4 4 9 9 9 8 5 0 2 2 2 3 3 3 2 2 2 2 2 2 2 3 3 2 2 2 2 2 2 1 1 1 1 1 1 2 2
6 6 10 8 11 11 6 1 4 6 7 8 8 4 3 3 3 3 3 3 3 3 2 2 2 3 3 4 3 1 1 1 1 2 1 1 1 1 1 1 1 2 2 3
12 9 2 11 10 6 2 4 5 5 6 7 7 6 6 5 5 4 4 4 3 4 3 2 2 3 4 3 1 1 1 1 1 1 1 1 1 1 1 1 1 1 2 2
8 12 8 10 11 8 7 7 6 5 6 7 7 7 7 6 5 5 5 4 4 4 4 4 3 4 4 2 2 2 2 2 1 1 1 1 1 1 1 1 2 2 2 3
9 9 6 9 14 13 10 8 7 7 7 8 8 8 8 6 6 6 5 4 4 5 5 5 3 3 3 2 3 3 3 2 2 2 2 1 1 2 2 2 2 3 3 3
12 10 9 7 7 10 11 11 11 9 7 7 8 9 7 6 6 5 5 5 5 5 5 5 4 4 3 3 4 4 3 3 2 2 2 2 2 2 3 3 3 4 4 4
8 5 7 5 4 7 9 10 9 9 9 8 7 8 7 6 5 4 5 6 6 6 6 5 4 4 4 4 4 5 5 4 3 2 2 2 2 2 2 2 3 4 5 6
8 4 6 8 7 6 7 7 6 5 6 6 6 5 5 5 5 6 7 7 6 5 5 5 5 5 4 5 5 5 5 4 4 3 3 3 3 3 3 3 3 3 4 6
11 11 10 6 4 4 4 4 5 6 6 6 5 6 7 7 8 7 6 4 4 5 5 5 6 5 4 5 6 6 5 4 4 3 3 3 3 3 3 3 3 3 3 3
7 7 8 8 9 7 6 7 8 9 8 7 7 7 8 7 6 5 4 5 6 7 7 6 7 5 5 6 6 5 5 5 4 4 3 3 3 3 3 3 3 4 4 3
7 8 9 9 11 10 10 10 9 9 8 8 9 7 6 5 5 5 5 6 6 6 5 6 6 4 5 6 6 5 4 4 5 4 4 4 4 4 4 4 4 4 4 4
12 12 10 9 9 10 10 9 8 8 8 7 6 6 7 8 8 8 6 5 4 5 6 6 5 4 5 6 5 4 4 4 4 5 4 4 4 4 4 4 5 5 4 4
11 11 10 10 10 9 9 9 9 8 6 6 7 8 8 7 6 5 5 5 6 7 6 6 7 6 6 6 6 5 5 5 5 4 4 5 4 4 4 4 5 5 4 4
8 8 8 8 8 8 8 7 6 6 6 6 6 6 6 6 6 6 6 7 7 5 4 5 6 5 6 6 6 5 5 5 5 5 4 4 5 5 5 5 5 5 4 4
7 6 6 6 6 6 6 6 6 6 6 7 8 8 7 5 5 6 6 6 5 4 4 5 4 4 5 5 6 5 5 5 5 5 5 5 5 5 5 5 5 5 5 5
5 5 6 5 4 4 4 4 5 6 6 6 6 5 5 5 5 5 6 5 3 4 4 4 4 5 5 5 5 5 5 5 5 5 5 5 5 5 5 5 5 5 5 5
4 4 4 4 4 3 2 2 3 5 6 7 7 7 7 5 5 5 5 3 3 5 4 4 4 6 6 5 4 5 5 5 5 5 5 5 5 5 5 5 5 5 5 5
3 3 3 2 2 3 3 3 3 3 3 3 4 4 4 3 3 3 2 3 4 5 4 4 6 6 6 4 4 4 5 5 5 5 5 5 5 5 5 5 5 5 5 6
2 2 2 3 4 4 3 3 2 2 2 2 2 3 2 2 3 2 2 3 4 4 3 4 5 5 4 4 4 4 4 4 4 4 5 5 5 5 5 5 5 5 5 5
2 2 3 3 2 2 2 3 3 3 2 2 1 1 1 1 1 2 2 3 3 3 2 2 3 3 3 3 4 4 4 4 4 4 5 5 5 5 4 5 6 5 5 5
0 1 1 1 1 1 2 2 3 3 3 3 2 1 1 1 2 2 2 2 2 2 2 2 2 2 2 3 3 3 3 3 4 4 4 4 4 4 4 5 5 5 5 5
Wind_Direction
306 316 283 253 237 208 210 218 220 232 244 266 276 274 268 255 248 257 262 260 261 264 271 273 276 279 280 287 294 288 278 281 291 304 311 314 310 311 311 308 319 330 329 331
303 11 286 278 255 230 230 232 232 251 269 265 274 262 249 240 233 240 252 256 256 255 254 257 259 263 266 269 276 270 269 282 296 304 306 303 303 305 309 310 320 325 324 329
267 330 314 273 236 205 210 215 207 222 235 224 227 233 243 239 236 240 248 251 249 245 243 245 246 244 248 257 257 250 264 281 290 291 291 292 295 291 293 298 307 311 317 318
313 12 251 255 127 193 213 235 222 234 240 237 246 275 271 251 238 243 246 246 244 240 240 243 242 242 245 243 239 251 267 281 288 283 281 288 283 282 288 289 287 293 305 310
156 250 277 281 201 182 199 258 221 221 236 240 240 291 267 235 221 226 234 235 237 231 227 225 226 224 203 208 235 255 269 275 276 268 271 278 275 279 282 281 284 292 304 312
163 213 243 247 145 160 162 270 214 200 214 206 179 240 261 174 196 217 220 217 215 205 197 207 218 191 189 212 233 254 264 268 269 261 257 263 268 277 286 280 287 307 309 311
194 232 260 238 144 154 194 246 166 187 197 185 200 232 262 165 211 215 207 202 192 190 200 217 201 180 200 223 243 257 265 265 268 265 260 263 274 291 294 289 301 301 304 313
175 210 248 165 157 196 222 111 165 185 196 201 215 229 235 234 230 218 211 207 196 196 210 217 190 191 214 238 256 258 241 246 260 270 268 259 261 289 287 279 288 297 308 311
197 218 264 174 203 219 197 199 201 202 205 204 216 229 233 239 238 234 227 219 205 203 210 218 204 206 224 246 244 207 206 231 253 279 278 271 246 248 261 257 270 289 297 302
243 255 242 226 238 240 226 229 228 218 207 201 219 230 231 233 233 232 223 213 201 197 212 224 213 212 229 235 192 194 210 223 224 232 248 256 255 245 245 246 254 270 282 291
244 261 276 248 229 231 229 231 233 228 220 216 220 229 229 229 225 223 219 209 199 207 219 227 217 218 221 208 190 200 210 215 220 226 236 239 238 243 243 250 249 261 274 282
222 212 204 226 214 206 212 222 220 216 222 220 216 224 223 226 224 217 214 204 205 214 220 223 214 218 213 201 197 199 207 212 215 221 227 236 245 270 268 266 286 277 284 290
227 208 218 244 236 206 211 220 216 212 215 220 219 216 217 225 222 213 211 207 211 216 218 215 211 220 213 199 197 201 210 211 214 215 220 228 237 248 275 285 275 280 286 291
226 209 243 237 233 218 215 219 209 210 217 215 214 208 207 218 220 216 220 217 210 206 209 208 213 224 208 196 197 205 213 213 215 218 221 226 232 239 251 267 286 291 293 295
226 218 230 240 233 218 210 197 201 218 218 217 206 204 204 210 219 224 220 200 189 200 210 207 218 225 191 190 197 205 209 211 212 218 220 224 229 234 239 249 260 277 295 299
223 220 229 235 236 229 216 212 215 224 218 214 211 212 213 214 218 217 205 189 195 212 212 209 221 217 188 192 198 204 211 213 209 213 216 220 222 227 233 241 251 261 270 282
201 221 221 228 233 232 226 223 223 224 216 214 215 208 196 194 204 214 214 207 215 226 219 216 222 203 191 196 202 206 207 207 205 211 215 217 219 225 230 235 244 254 261 267
222 228 220 216 220 226 231 226 222 219 218 217 201 189 191 198 211 214 208 196 204 228 231 224 213 195 194 197 202 206 205 207 207 214 218 219 222 227 230 236 244 253 265 268
229 233 231 227 226 223 226 225 222 219 212 196 194 202 207 210 208 201 187 187 202 224 228 208 203 193 200 202 198 202 204 206 210 215 219 220 224 228 230 236 244 251 257 260
235 235 235 234 229 224 226 224 212 207 204 193 194 201 207 208 196 190 192 209 221 223 194 185 193 199 203 202 198 202 205 209 213 216 217 220 225 229 232 237 243 248 251 252
237 235 232 229 230 231 225 212 199 203 199 190 194 203 208 207 194 189 198 224 227 201 193 192 198 202 199 194 196 204 206 211 215 218 220 224 228 232 236 239 242 244 247 251
237 232 231 225 221 230 227 204 197 194 191 193 197 194 192 199 200 206 219 229 206 178 190 202 206 204 198 192 197 204 208 213 217 218 221 224 228 233 237 239 243 246 248 251
232 228 224 217 214 214 200 194 198 195 195 195 194 196 200 202 197 204 228 216 192 192 199 207 205 199 192 192 199 204 209 213 217 219 222 225 229 233 237 240 242 244 248 251
230 222 215 196 166 172 201 212 200 199 199 199 201 199 193 194 214 225 231 180 186 193 202 202 200 194 185 193 199 207 213 217 220 224 227 230 231 234 237 240 243 247 248 252
213 204 187 179 191 206 204 176 162 172 182 201 206 200 201 208 213 207 188 189 187 187 200 201 198 189 188 197 203 210 216 219 221 223 225 229 232 235 238 240 242 247 250 252
208 210 209 213 211 189 170 171 184 188 185 193 206 194 185 179 178 177 179 185 185 187 194 198 196 191 196 200 206 213 218 222 223 225 229 232 236 238 241 244 249 250 253 254
152 177 173 177 194 186 182 188 195 199 198 195 203 188 174 171 169 174 175 177 178 182 188 193 194 193 197 202 208 214 218 221 223 226 230 233 237 240 242 246 250 254 256 257